Location: Northcutt
(34.7304°N, 84.4305°W)
Time: 10:31:35
(UTC+00:00)

A-11 Canister half - Pass Details

Date: 09 October 2022
Orbit: 1524 x 1685 km, 47.3° (Epoch: 30 November)

Event Time Altitude Azimuth Distance (km) Brightness Sun altitude
Rises 23:10:35 0° 298° (WNW) 4,676 12.6 -0.8°
Reaches altitude 10° 23:13:50 10° 305° (NW) 3,700 11.8 -1.5°
Maximum altitude 23:22:41 45° 16° (NNE) 2,028 9.5 -3.3°
Drops below altitude 10° 23:31:43 10° 87° (E) 3,788 10.4 -5.1°
Enters shadow 23:33:04 - 90° (E) 4,186 10.6 -5.4°
Sets 23:35:05 0° 94° (E) 4,795 - -5.8°
